CW0566 Weather Reports


time (UTC)temp
F
wind
direction
speed
knots
gust
knots
rain 1hr
in
rain 24hr
in
rain mn
in
humidity
%
barometer
mb
20210518193016 79 180 3.5 8.7 0.00 0.00 0.00 38 1025.5
20210518192016 79 157 2.6 6.1 0.00 0.00 0.00 36 1025.6
20210518191016 79 157 4.3 9.6 0.00 0.00 0.00 37 1025.8
20210518190016 79 180 2.6 7.8 0.00 0.00 0.00 38 1025.8
20210518185016 78 112 2.6 6.1 0.00 0.00 0.00 40 1025.8
20210518184016 78 157 3.5 8.7 0.00 0.00 0.00 40 1026.0
20210518183015 79 180 4.3 11.3 0.00 0.00 0.00 36 1026.0
20210518182015 79 157 2.6 7.0 0.00 0.00 0.00 40 1026.2
20210518181016 78 180 4.3 11.3 0.00 0.00 0.00 39 1026.3
20210518180015 78 157 1.7 4.3 0.00 0.00 0.00 43 1026.3
20210518175016 78 157 3.5 7.8 0.00 0.00 0.00 38 1026.4
20210518174015 77 112 2.6 7.8 0.00 0.00 0.00 44 1026.4
20210518173015 77 45 3.5 9.6 0.00 0.00 0.00 36 1026.6
20210518172015 77 135 3.5 9.6 0.00 0.00 0.00 43 1026.8
20210518171015 77 157 3.5 7.0 0.00 0.00 0.00 38 1027.0
20210518170015 77 157 1.7 6.1 0.00 0.00 0.00 40 1027.0
20210518165015 77 157 4.3 8.7 0.00 0.00 0.00 41 1027.1
20210518164015 76 135 3.5 8.7 0.00 0.00 0.00 40 1027.3
20210518163015 77 157 3.5 7.0 0.00 0.00 0.00 48 1027.4
20210518162016 76 157 5.2 10.4 0.00 0.00 0.00 46 1027.4
20210518161015 77 112 2.6 7.0 0.00 0.00 0.00 48 1027.5
20210518160016 75 157 2.6 7.8 0.00 0.00 0.00 48 1027.6
20210518155015 76 157 2.6 7.0 0.00 0.00 0.00 54 1027.7
20210518154015 75 157 3.5 9.6 0.00 0.00 0.00 48 1027.9
20210518153015 74 270 1.7 5.2 0.00 0.00 0.00 54 1027.8
20210518152015 75 135 2.6 4.3 0.00 0.00 0.00 53 1027.8
20210518151015 74 157 3.5 9.6 0.00 0.00 0.00 52 1027.9
20210518150015 74 135 2.6 6.1 0.00 0.00 0.00 55 1027.9
20210518145015 74 157 3.5 6.1 0.00 0.00 0.00 53 1027.8
20210518144015 74 135 1.7 3.5 0.00 0.00 0.00 57 1027.9
20210518143015 73 112 2.6 5.2 0.00 0.00 0.00 56 1028.1
20210518142015 72 135 1.7 6.1 0.00 0.00 0.00 56 1028.1
20210518141015 71 157 2.6 7.0 0.00 0.00 0.00 55 1028.1
20210518140017 71 157 2.6 5.2 0.00 0.00 0.00 59 1028.1
20210518135015 71 157 3.5 7.0 0.00 0.00 0.00 59 1028.1
20210518134015 70 157 2.6 4.3 0.00 0.00 0.00 60 1028.2
20210518133015 70 157 3.5 7.0 0.00 0.00 0.00 61 1028.0
20210518132017 69 180 1.7 3.5 0.00 0.00 0.00 63 1028.0
20210518131017 69 157 2.6 7.0 0.00 0.00 0.00 63 1028.0
20210518130017 68 157 1.7 5.2 0.00 0.00 0.00 66 1027.9
20210518125017 67 157 0.9 2.6 0.00 0.00 0.00 67 1027.9
20210518124017 66 135 1.7 3.5 0.00 0.00 0.00 72 1027.9
20210518123015 64 135 2.6 6.1 0.00 0.00 0.00 71 1027.9
20210518122017 63 180 1.7 3.5 0.00 0.00 0.00 74 1027.9
20210518121017 63 157 0.9 2.6 0.00 0.00 0.00 78 1027.7
20210518120017 61 157 1.7 5.2 0.00 0.00 0.00 79 1027.5
20210518115017 59 157 1.7 3.5 0.00 0.00 0.00 87 1027.3
20210518114017 55 0.0 0.9 0.00 0.00 0.00 94 1027.3
20210518113017 52 0.0 0.0 0.00 0.00 0.00 94 1027.2
20210518112017 50 0.0 0.0 0.00 0.00 0.00 94 1027.1
20210518111017 47 0.0 0.0 0.00 0.00 0.00 93 1027.0
20210518110017 46 0.0 0.0 0.00 0.00 0.00 92 1026.9
20210518105017 45 0.0 0.0 0.00 0.00 0.00 91 1026.7
20210518104017 44 0.0 0.0 0.00 0.00 0.00 91 1026.6
20210518103016 44 0.0 0.0 0.00 0.00 0.00 91 1026.6
20210518102016 44 0.0 0.0 0.00 0.00 0.00 90 1026.4
20210518101017 44 0.0 0.0 0.00 0.00 0.00 90 1026.4
20210518100017 44 0.0 0.0 0.00 0.00 0.00 90 1026.2
20210518095016 44 0.0 0.0 0.00 0.00 0.00 90 1026.3
20210518094017 44 0.0 0.0 0.00 0.00 0.00 90 1026.3
20210518093016 44 0.0 0.0 0.00 0.00 0.00 89 1026.3
20210518092016 45 0.0 0.0 0.00 0.00 0.00 89 1026.3
20210518091016 45 0.0 0.0 0.00 0.00 0.00 89 1026.3
20210518090017 45 0.0 0.0 0.00 0.00 0.00 89 1026.3
20210518085016 45 0.0 0.0 0.00 0.00 0.00 89 1026.3
20210518084016 45 0.0 0.0 0.00 0.00 0.00 89 1026.3
20210518083016 45 0.0 0.0 0.00 0.00 0.00 88 1026.2
20210518082016 45 0.0 0.0 0.00 0.00 0.00 88 1026.1
20210518081016 46 0.0 0.0 0.00 0.00 0.00 88 1026.0
20210518080016 46 0.0 0.0 0.00 0.00 0.00 87 1025.9
20210518075016 46 0.0 0.0 0.00 0.00 0.00 87 1025.7
20210518074016 46 0.0 0.0 0.00 0.00 0.00 87 1025.8
20210518073016 46 0.0 0.0 0.00 0.00 0.00 87 1025.8
20210518072016 47 0.0 0.0 0.00 0.00 0.00 87 1025.9
20210518071016 47 0.0 0.0 0.00 0.00 0.00 86 1025.7
20210518070016 47 0.0 0.0 0.00 0.00 0.00 86 1025.8
20210518065016 47 0.0 0.0 0.00 0.00 0.00 86 1025.7
20210518064016 48 0.0 0.0 0.00 0.00 0.00 86 1025.7
20210518063016 48 0.0 0.0 0.00 0.00 0.00 85 1025.7
20210518062016 48 0.0 0.0 0.00 0.00 0.00 85 1025.6
20210518061016 48 0.0 0.0 0.00 0.00 0.00 85 1025.6
20210518060016 49 0.0 0.0 0.00 0.00 0.00 84 1025.6
20210518055016 49 0.0 0.0 0.00 0.00 0.00 85 1025.7
20210518054016 49 0.0 0.0 0.00 0.00 0.00 84 1025.7
20210518053016 50 0.0 0.0 0.00 0.00 0.00 84 1025.8
20210518052016 50 0.0 0.0 0.00 0.00 0.00 84 1025.9
20210518051016 50 0.0 0.0 0.00 0.00 0.00 84 1025.9
20210518050016 51 0.0 0.0 0.00 0.00 0.00 84 1025.9
20210518045017 51 0.0 0.0 0.00 0.00 0.00 84 1026.0
20210518044016 51 0.0 0.0 0.00 0.00 0.00 83 1026.1
20210518043016 51 0.0 0.0 0.00 0.00 0.00 82 1026.1
20210518042016 52 0.0 0.0 0.00 0.00 0.00 80 1026.0
20210518041016 52 0.0 0.0 0.00 0.00 0.00 79 1026.0
20210518040016 52 0.0 0.0 0.00 0.00 0.00 79 1025.9
20210518035016 53 0.0 0.0 0.00 0.00 0.00 78 1025.9
20210518034016 53 0.0 0.0 0.00 0.00 0.00 77 1025.9
20210518033016 53 0.0 0.0 0.00 0.00 0.00 77 1025.8
20210518032016 54 0.0 0.0 0.00 0.00 0.00 76 1025.7
20210518031016 54 0.0 0.0 0.00 0.00 0.00 75 1025.6
20210518030016 54 0.0 0.0 0.00 0.00 0.00 75 1025.7
20210518025016 55 0.0 0.0 0.00 0.00 0.00 74 1025.8
20210518024016 55 0.0 0.0 0.00 0.00 0.00 72 1025.9
20210518023016 56 0.0 0.0 0.00 0.00 0.00 71 1025.8
20210518022016 57 0.0 0.0 0.00 0.00 0.00 69 1025.8
20210518021016 57 0.0 0.0 0.00 0.00 0.00 68 1025.8
20210518020016 58 0.0 0.0 0.00 0.00 0.00 67 1025.9
20210518015016 59 0.0 0.0 0.00 0.00 0.00 66 1025.7
20210518014018 59 0.0 0.0 0.00 0.00 0.00 65 1025.7
20210518013016 60 0.0 0.0 0.00 0.00 0.00 63 1025.6
20210518012016 61 0.0 0.0 0.00 0.00 0.00 61 1025.5
20210518011016 62 0.0 0.0 0.00 0.00 0.00 61 1025.4
20210518010016 62 0.0 0.9 0.00 0.00 0.00 59 1025.4
20210518005016 63 0.0 0.9 0.00 0.00 0.00 58 1025.2
20210518004016 64 112 0.9 2.6 0.00 0.00 0.00 57 1025.1
20210518003016 64 0.0 3.5 0.00 0.00 0.00 56 1024.9
20210518002016 65 0.0 1.7 0.00 0.00 0.00 55 1024.8
20210518001016 65 0.0 0.0 0.00 0.00 0.00 54 1024.8
20210518000016 66 0.0 1.7 0.00 0.00 0.00 52 1024.7
20210517235016 67 135 1.7 5.2 0.00 0.00 0.00 50 1024.7
20210517234016 68 90 0.9 2.6 0.00 0.00 0.00 50 1024.6
20210517233016 69 157 0.9 2.6 0.00 0.00 0.00 49 1024.4
20210517232016 70 112 0.9 4.3 0.00 0.00 0.00 47 1024.4
20210517231016 71 90 2.6 7.8 0.00 0.00 0.00 45 1024.3
20210517230016 72 157 1.7 4.3 0.00 0.00 0.00 43 1024.4
20210517225016 73 157 2.6 5.2 0.00 0.00 0.00 41 1024.4
20210517224016 73 157 2.6 5.2 0.00 0.00 0.00 40 1024.2
20210517223016 73 157 3.5 7.0 0.00 0.00 0.00 40 1024.2
20210517222017 74 157 1.7 4.3 0.00 0.00 0.00 35 1024.2
20210517221016 74 157 2.6 6.1 0.00 0.00 0.00 32 1024.0
20210517220016 75 157 3.5 6.1 0.00 0.00 0.00 31 1024.2
20210517215016 75 157 3.5 9.6 0.00 0.00 0.00 33 1024.1
20210517214016 75 157 3.5 6.1 0.00 0.00 0.00 32 1024.1
20210517213016 75 157 3.5 7.8 0.00 0.00 0.00 36 1024.2
20210517212016 75 157 1.7 5.2 0.00 0.00 0.00 36 1024.1
20210517211016 76 157 3.5 7.8 0.00 0.00 0.00 35 1024.2
20210517210016 76 337 1.7 7.0 0.00 0.00 0.00 35 1024.0
20210517205016 76 157 3.5 9.6 0.00 0.00 0.00 39 1024.0
20210517204016 76 157 3.5 6.1 0.00 0.00 0.00 40 1023.9
20210517203016 76 157 3.5 7.8 0.00 0.00 0.00 38 1023.9
20210517202016 76 135 0.9 2.6 0.00 0.00 0.00 44 1023.9
20210517201016 76 112 2.6 6.1 0.00 0.00 0.00 41 1023.9
20210517200015 74 157 0.9 3.5 0.00 0.00 0.00 42 1023.9
20210517195015 72 180 0.9 1.7 0.00 0.00 0.00 44 1024.1
20210517194016 72 247 0.9 2.6 0.00 0.00 0.00 42 1024.1